Home > Weather > Taichung > Past weeks

Flag for Taiwan Weather for the Past 2 Weeks in Taichung, Taiwan

Now
50 °F

Mostly cloudy.


Feels Like: 43 °F
Forecast: 55 / 60 °F
Wind: 22 mph from Northeast

Location: Chiang Kai Shek

Current Time: Feb 15, 2016 at 7:42:35 AM

Latest Report: Feb 15, 2016 at 7:00 AM


Visibility: 6 mi

Pressure: 30.33 "Hg

Humidity: 76%

Dew point: 43 °F

Location of TaichungLocation

Historic Weather in Taichung — Graph

°F

Taichung Temperature Yesterday

Maximum temperature yesterday: 73 °F (at 12:30 AM)
Minimum temperature yesterday: 50 °F (at 7:30 PM)
Average temperature yesterday: 59 °F

High & Low Weather Summary for the Past Weeks

 TemperatureHumidityPressure
High79 °F (Feb 13, 9:30 AM)100% (Feb 11, 5:03 PM)30.36 "Hg (Feb 11, 5:03 PM)
Low45 °F (Feb 8, 1:30 AM)32% (Feb 9, 11:00 AM)29.83 "Hg (Feb 13, 2:00 PM)
Average59 °F78%30.14 "Hg
* Reported Jan 31 6:30 AM — Feb 15 6:30 AM, Taichung, Weather by CustomWeather, © 2016

Note: Actual official high and low records may vary slightly from our data, if they occured in-between our weather recording intervals... More about our weather records

Advertising

Taichung Weather History for the Previous 24 Hours

 ConditionsComfort  
Time TempWeatherWind HumidityBarometerVisibility
6:30 AM
Mon, Feb 15
50 °FMostly cloudy.20 mph71%30.33 "Hg4 mi
6:00 AM48 °FMostly cloudy.21 mph82%30.30 "Hg4 mi
5:30 AM48 °FLight rain. Passing clouds.23 mph76%30.30 "Hg4 mi
5:00 AM48 °FLight rain. Passing clouds.23 mph76%30.30 "Hg3 mi
4:30 AM48 °FPassing clouds.26 mph76%30.30 "Hg3 mi
4:00 AM46 °FDrizzle. Fog.26 mph87%30.30 "Hg2 mi
3:30 AM48 °FDrizzle. Fog.26 mph82%30.33 "Hg2 mi
3:00 AM48 °FDrizzle. Fog.23 mph82%30.33 "Hg2 mi
2:30 AM48 °FLight rain. Fog.25 mph87%30.30 "Hg2 mi
2:02 AM48 °FLight rain. Fog.25 mph87%30.30 "Hg2 mi
1:30 AM50 °FLight rain. Passing clouds.28 mph82%30.30 "Hg3 mi
1:00 AM50 °FLight rain. Fog.25 mph82%30.30 "Hg3 mi
12:30 AM48 °FLight rain. Fog.28 mph87%30.27 "Hg3 mi
12:00 AM48 °FLight rain. Fog.28 mph94%30.30 "Hg3 mi
11:30 PM
Sun, Feb 14
50 °FLight rain. Fog.28 mph88%30.30 "Hg3 mi
11:00 PM50 °FLight rain. Fog.26 mph88%30.27 "Hg3 mi
10:58 PM50 °FLight rain. Fog.26 mph88%30.27 "Hg3 mi
10:30 PM50 °FLight rain. Mostly cloudy.28 mph88%30.27 "Hg5 mi
10:00 PM50 °FLight rain. Fog.25 mph88%30.27 "Hg3 mi
9:30 PM50 °FLight rain. Fog.29 mph88%30.24 "Hg3 mi
9:00 PM50 °FLight rain. Fog.26 mph94%30.24 "Hg3 mi
8:30 PM50 °FLight rain. Fog.29 mph88%30.21 "Hg2 mi
8:00 PM50 °FLight rain. Fog.29 mph94%30.21 "Hg2 mi
7:30 PM50 °FLight rain. Mostly cloudy.31 mph94%30.18 "HgN/A
7:00 PM52 °FLight rain. Mostly cloudy.33 mph88%30.15 "HgN/A
6:30 PM52 °FLight rain. Mostly cloudy.31 mph88%30.15 "HgN/A
6:00 PM52 °FLight rain. Mostly cloudy.26 mph88%30.15 "HgN/A
5:30 PM52 °FLight rain. Mostly cloudy.29 mph94%30.15 "Hg3 mi
5:00 PM52 °FLight rain. Mostly cloudy.30 mph94%30.12 "Hg3 mi
4:30 PM54 °FSprinkles. Mostly cloudy.32 mph88%30.09 "Hg4 mi
4:00 PM54 °FSprinkles. Mostly cloudy.31 mph94%30.07 "Hg4 mi
3:47 PM54 °FSprinkles. Mostly cloudy.30 mph94%30.09 "Hg3 mi
3:30 PM54 °FSprinkles. Mostly cloudy.30 mph94%30.09 "Hg3 mi
3:00 PM55 °FRain showers. Mostly cloudy.30 mph94%30.07 "Hg2 mi
2:30 PM57 °FSprinkles. Mostly cloudy.29 mph88%30.04 "Hg4 mi
2:00 PM57 °FSprinkles. Mostly cloudy.29 mph88%30.04 "Hg4 mi
1:45 PM57 °FSprinkles. Mostly cloudy.30 mph94%30.04 "Hg4 mi
1:30 PM59 °FSprinkles. Mostly cloudy.26 mph88%30.01 "HgN/A
1:00 PM59 °FSprinkles. Broken clouds.31 mph94%30.01 "Hg4 mi
12:58 PM59 °FSprinkles. Broken clouds.32 mph94%30.01 "Hg4 mi
12:30 PM59 °FSprinkles. Broken clouds.29 mph94%30.01 "Hg5 mi
12:00 PM59 °FSprinkles. Fog.26 mph100%30.01 "Hg2 mi
11:30 AM61 °FRain showers. Fog.29 mph94%30.01 "Hg1 mi
11:00 AM61 °FSprinkles. Fog.26 mph94%30.01 "Hg2 mi
10:30 AM61 °FSprinkles. Fog.25 mph100%30.01 "Hg2 mi
10:00 AM63 °FRain showers. Fog.29 mph94%30.01 "Hg1 mi
9:30 AM63 °FRain showers. Fog.22 mph100%30.01 "Hg1 mi
9:00 AM64 °FSprinkles. Fog.17 mph94%30.01 "Hg1 mi
8:30 AM63 °FLight rain. Fog.12 mph94%29.98 "Hg1 mi
8:00 AM64 °FFog.8 mph94%29.98 "Hg1 mi
7:30 AM66 °FFog.5 mph94%29.98 "Hg1 mi
7:00 AM66 °FBroken clouds.7 mph94%29.95 "Hg4 mi
Weather by CustomWeather, © 2016

See weather overviewHow to use our weather pages